DW9313 Weather Reports


time (UTC)temp
C
wind
direction
speed
KPH
gust
KPH
rain 1hr
cm
rain 24hr
cm
rain mn
cm
humidity
%
barometer
mb
20190520073759 11 327 3.2 11.3 0.00 0.69 0.03 83 1015.8
20190520073259 11 309 3.2 11.3 0.00 0.69 0.03 82 1015.7
20190520072759 10 332 8.0 16.1 0.00 0.69 0.03 82 1015.7
20190520072259 10 324 8.0 12.9 0.00 0.69 0.03 83 1015.6
20190520071759 10 318 6.4 14.5 0.00 0.69 0.03 83 1015.6
20190520071259 10 302 6.4 12.9 0.00 0.69 0.03 83 1015.7
20190520070759 10 321 3.2 9.7 0.00 0.69 0.03 83 1015.7
20190520070259 10 310 4.8 12.9 0.03 0.69 0.03 84 1015.7
20190520065759 10 306 8.0 11.3 0.03 0.69 0.03 84 1015.6
20190520065258 10 295 8.0 14.5 0.03 0.69 0.03 84 1015.6
20190520064759 10 305 6.4 12.9 0.03 0.69 0.03 84 1015.7
20190520064259 10 313 4.8 9.7 0.03 0.69 0.03 84 1015.6
20190520063759 10 304 8.0 12.9 0.03 0.69 0.03 84 1015.7
20190520063259 10 303 3.2 9.7 0.03 0.69 0.03 85 1015.6
20190520062759 9 297 1.6 8.0 0.03 0.69 0.03 85 1015.6
20190520062300 9 314 8.0 12.9 0.03 0.69 0.03 85 1015.5
20190520061759 9 312 8.0 12.9 0.03 0.69 0.03 85 1015.5
20190520061259 9 325 4.8 12.9 0.03 0.69 0.03 85 1015.5
20190520060800 9 304 4.8 12.9 0.03 0.69 0.03 86 1015.5
20190520060259 9 309 6.4 19.3 0.00 0.66 0.00 85 1015.4
20190520055759 9 297 8.0 12.9 0.00 0.66 0.00 86 1015.3
20190520055259 8 317 4.8 12.9 0.00 0.66 0.00 86 1015.3
20190520054759 8 302 6.4 14.5 0.00 0.66 0.00 86 1015.3
20190520054259 8 297 4.8 11.3 0.00 0.66 0.00 86 1015.2
20190520053800 8 301 4.8 9.7 0.00 0.66 0.00 86 1015.2
20190520053259 8 307 4.8 11.3 0.00 0.66 0.00 86 1015.2
20190520052800 8 311 4.8 14.5 0.00 0.66 0.00 86 1015.2
20190520052259 8 311 6.4 19.3 0.00 0.66 0.00 86 1015.1
20190520051759 8 317 8.0 14.5 0.00 0.66 0.00 87 1015.1
20190520051300 8 314 9.7 12.9 0.00 0.66 0.00 87 1015.1
20190520050800 8 313 8.0 12.9 0.00 0.66 0.00 87 1015.2
20190520050259 8 317 4.8 11.3 0.00 0.66 0.00 87 1015.1
20190520045800 8 316 4.8 9.7 0.00 0.66 0.00 87 1015.1
20190520045300 8 307 4.8 9.7 0.00 0.66 0.00 86 1015.0
20190520044800 8 311 4.8 9.7 0.00 0.66 0.00 86 1015.0
20190520044301 8 306 4.8 9.7 0.00 0.66 0.00 86 1015.0
20190520043800 8 309 4.8 9.7 0.00 0.66 0.00 86 1014.9
20190520043300 8 312 4.8 9.7 0.00 0.66 0.00 86 1014.9
20190520042800 8 313 4.8 9.7 0.00 0.66 0.00 86 1014.9
20190520042300 8 317 3.2 9.7 0.00 0.66 0.00 86 1014.9
20190520041800 8 307 4.8 11.3 0.00 0.66 0.00 86 1014.9
20190520041300 8 309 3.2 8.0 0.00 0.66 0.00 86 1014.9
20190520040800 9 312 0.0 0.0 0.00 0.66 0.00 86 1014.8
20190520040300 9 301 0.0 3.2 0.00 0.66 0.00 86 1014.8
20190520035800 9 313 3.2 8.0 0.00 0.66 0.00 86 1014.8
20190520035300 9 299 3.2 9.7 0.00 0.66 0.00 86 1014.8
20190520034800 9 306 4.8 11.3 0.00 0.66 0.00 86 1014.8
20190520034300 9 312 4.8 9.7 0.00 0.66 0.00 85 1014.8
20190520033801 9 304 4.8 11.3 0.00 0.66 0.00 85 1014.8
20190520033300 9 310 4.8 9.7 0.00 0.66 0.00 85 1014.8
20190520032801 9 322 3.2 9.7 0.00 0.66 0.00 85 1014.7
20190520032301 9 313 4.8 9.7 0.00 0.66 0.00 85 1014.7
20190520031801 9 307 4.8 9.7 0.00 0.66 0.00 85 1014.7
20190520031300 9 312 4.8 11.3 0.00 0.66 0.00 86 1014.6
20190520030801 9 308 4.8 11.3 0.00 0.66 0.00 86 1014.7
20190520030301 9 301 4.8 12.9 0.00 0.66 0.00 86 1014.6
20190520025801 9 299 8.0 12.9 0.00 0.66 0.00 85 1014.6
20190520025301 9 307 8.0 12.9 0.00 0.66 0.00 85 1014.6
20190520024801 9 305 8.0 12.9 0.00 0.66 0.00 85 1014.7
20190520023801 10 305 8.0 11.3 0.00 0.66 0.00 85 1014.6
20190520023301 10 306 6.4 12.9 0.00 0.66 0.00 85 1014.7
20190520022801 10 303 6.4 12.9 0.00 0.66 0.00 85 1014.7
20190520022301 10 306 6.4 12.9 0.00 0.66 0.00 85 1014.6
20190520021801 10 309 8.0 11.3 0.00 0.66 0.00 85 1014.6
20190520021301 10 307 8.0 12.9 0.00 0.66 0.00 85 1014.5
20190520020801 9 310 9.7 14.5 0.00 0.66 0.00 85 1014.6
20190520020301 9 304 8.0 12.9 0.00 0.66 0.00 85 1014.6
20190520015801 9 307 8.0 12.9 0.00 0.66 0.00 85 1014.6
20190520015302 9 306 8.0 12.9 0.00 0.66 0.00 85 1014.6
20190520014801 9 311 8.0 12.9 0.00 0.66 0.00 85 1014.6
20190520014301 9 310 8.0 12.9 0.00 0.66 0.00 85 1014.6
20190520013802 9 302 6.4 12.9 0.00 0.66 0.00 85 1014.6
20190520013302 9 309 8.0 12.9 0.00 0.66 0.00 85 1014.6
20190520012802 10 305 6.4 12.9 0.00 0.66 0.00 85 1014.7
20190520012301 10 311 9.7 19.3 0.00 0.66 0.00 85 1014.7
20190520011801 10 308 9.7 14.5 0.00 0.66 0.00 85 1014.7
20190520011301 10 309 9.7 19.3 0.00 0.66 0.00 85 1014.7
20190520010801 10 303 11.3 19.3 0.00 0.66 0.00 85 1014.7
20190520010302 10 311 8.0 14.5 0.00 0.66 0.00 85 1014.7
20190520005802 10 307 8.0 19.3 0.00 0.66 0.00 85 1014.7
20190520005301 10 312 11.3 19.3 0.00 0.66 0.00 85 1014.8
20190520004802 10 313 9.7 12.9 0.00 0.66 0.00 85 1014.7
20190520004301 10 313 8.0 12.9 0.00 0.66 0.00 85 1014.7
20190520003802 10 305 8.0 14.5 0.00 0.66 0.00 85 1014.7
20190520003302 10 307 9.7 12.9 0.00 0.66 0.00 85 1014.7
20190520002802 10 309 9.7 12.9 0.00 0.66 0.00 85 1014.8
20190520002302 10 315 8.0 12.9 0.00 0.66 0.00 85 1014.7
20190520001802 10 308 9.7 19.3 0.00 0.66 0.00 85 1014.7
20190520001302 10 300 8.0 14.5 0.00 0.66 0.00 86 1014.6
20190520000802 10 312 8.0 12.9 0.00 0.66 0.00 86 1014.6
20190520000303 10 306 8.0 12.9 0.00 0.66 0.00 86 1014.6
20190519235802 10 309 8.0 12.9 0.00 0.66 0.00 87 1014.6
20190519235303 10 305 8.0 12.9 0.00 0.66 0.00 88 1014.6
20190519234802 10 313 6.4 12.9 0.00 0.66 0.00 88 1014.6
20190519234302 10 296 4.8 11.3 0.00 0.66 0.00 89 1014.6
20190519233802 10 307 4.8 11.3 0.00 0.66 0.00 89 1014.7
20190519233302 10 320 4.8 9.7 0.00 0.66 0.00 89 1014.7
20190519232803 10 312 4.8 9.7 0.00 0.66 0.00 89 1014.7
20190519232302 10 312 4.8 9.7 0.00 0.66 0.00 89 1014.7
20190519231804 10 318 4.8 9.7 0.00 0.66 0.00 89 1014.6
20190519231303 10 314 4.8 11.3 0.00 0.66 0.00 89 1014.6
20190519230823 10 313 4.8 12.9 0.00 0.66 0.00 89 1014.6
20190519230303 10 313 8.0 12.9 0.00 0.66 0.00 89 1014.6
20190519225802 10 308 6.4 12.9 0.00 0.66 0.66 89 1014.7
20190519225303 10 308 6.4 12.9 0.00 0.66 0.66 89 1014.7
20190519224803 10 310 8.0 12.9 0.00 0.66 0.66 89 1014.7
20190519224303 10 307 6.4 11.3 0.00 0.66 0.66 89 1014.7
20190519223803 10 312 4.8 11.3 0.00 0.66 0.66 89 1014.7
20190519223302 10 314 8.0 12.9 0.00 0.66 0.66 89 1014.7
20190519222803 10 311 4.8 11.3 0.00 0.66 0.66 89 1014.7
20190519222303 10 314 6.4 11.3 0.00 0.66 0.66 89 1014.6
20190519221803 10 321 6.4 11.3 0.00 0.66 0.66 89 1014.6
20190519221303 10 315 8.0 12.9 0.00 0.66 0.66 89 1014.6
20190519220804 10 318 6.4 9.7 0.00 0.66 0.66 89 1014.6
20190519220304 10 310 8.0 12.9 0.00 0.66 0.66 89 1014.6
20190519215803 10 315 6.4 11.3 0.00 0.66 0.66 89 1014.5
20190519215303 10 310 4.8 12.9 0.00 0.66 0.66 89 1014.5
20190519214804 10 300 4.8 12.9 0.00 0.66 0.66 89 1014.5
20190519214304 11 312 6.4 12.9 0.00 0.66 0.66 89 1014.5
20190519213803 11 308 6.4 14.5 0.00 0.66 0.66 89 1014.5
20190519213303 11 308 8.0 14.5 0.00 0.66 0.66 89 1014.4
20190519212803 11 299 8.0 14.5 0.00 0.66 0.66 89 1014.5
20190519212304 11 299 8.0 12.9 0.00 0.66 0.66 89 1014.4
20190519211804 11 297 0.0 0.0 0.00 0.66 0.66 89 1014.4
20190519211304 11 285 0.0 0.0 0.00 0.66 0.66 88 1014.4
20190519210804 10 261 0.0 0.0 0.00 0.66 0.66 88 1014.3
20190519210304 10 256 0.0 0.0 0.00 0.66 0.66 88 1014.3
20190519205804 10 256 0.0 0.0 0.05 0.66 0.66 88 1014.3
20190519205303 11 273 0.0 3.2 0.18 0.66 0.66 88 1014.2
20190519204804 11 272 0.0 3.2 0.23 0.66 0.66 88 1014.2
20190519204303 11 261 0.0 8.0 0.28 0.66 0.66 87 1014.1
20190519203804 11 217 1.6 8.0 0.46 0.66 0.66 86 1014.1
20190519203304 11 236 3.2 9.7 0.56 0.66 0.66 86 1014.0
20190519202254 11 141 0.0 0.0 0.66 0.66 0.66 86 1014.0
20190519201754 11 214 1.6 9.7 0.66 0.66 0.66 86 1013.9
20190519201254 11 114 1.6 9.7 0.66 0.66 0.66 86 1014.0
20190519200754 11 313 3.2 9.7 0.66 0.66 0.66 87 1014.0
20190519200254 11 270 0.0 0.0 0.66 0.66 0.66 87 1013.9
20190519195754 11 268 3.2 9.7 0.61 0.61 0.61 86 1014.0
20190519195254 11 276 3.2 9.7 0.48 0.48 0.48 86 1013.9
20190519194753 11 291 6.4 19.3 0.43 0.43 0.43 86 1013.9
20190519194254 11 286 9.7 19.3 0.38 0.38 0.38 86 1013.8
20190519193754 12 304 9.7 19.3 0.20 0.20 0.20 83 1013.8
20190519193254 12 291 6.4 11.3 0.10 0.10 0.10 80 1013.6
20190519192754 13 284 4.8 11.3 0.05 0.05 0.05 77 1013.6
20190519192254 13 273 1.6 9.7 0.00 0.00 0.00 76 1013.5
20190519191753 13 267 1.6 9.7 0.00 0.00 0.00 75 1013.4
20190519191254 13 256 4.8 12.9 0.00 0.00 0.00 74 1013.4
20190519190754 13 255 3.2 11.3 0.00 0.00 0.00 73 1013.4
20190519190254 13 237 4.8 11.3 0.00 0.00 0.00 72 1013.4
20190519185755 13 251 8.0 14.5 0.00 0.00 0.00 72 1013.4
20190519185254 13 285 3.2 12.9 0.00 0.00 0.00 72 1013.4
20190519184754 13 266 4.8 12.9 0.00 0.00 0.00 72 1013.4
20190519184254 13 253 4.8 11.3 0.00 0.00 0.00 71 1013.4
20190519183755 13 264 8.0 12.9 0.00 0.00 0.00 71 1013.3
20190519183255 13 254 8.0 12.9 0.00 0.00 0.00 71 1013.3
20190519182754 14 292 4.8 12.9 0.00 0.00 0.00 71 1013.2
20190519182255 14 228 4.8 12.9 0.00 0.00 0.00 70 1013.2
20190519181754 14 266 8.0 14.5 0.00 0.00 0.00 70 1013.2
20190519181254 15 243 8.0 12.9 0.00 0.00 0.00 71 1013.1
20190519180755 15 246 4.8 12.9 0.00 0.00 0.00 70 1013.2
20190519180257 15 285 9.7 19.3 0.00 0.00 0.00 63 1013.1
20190519175804 15 279 8.0 12.9 0.00 0.00 0.00 61 1013.0
20190519175258 15 247 4.8 11.3 0.00 0.00 0.00 62 1013.0
20190519174755 15 275 8.0 12.9 0.00 0.00 0.00 62 1013.0
20190519174255 15 287 6.4 12.9 0.00 0.00 0.00 62 1013.0
20190519173755 16 278 4.8 12.9 0.00 0.00 0.00 60 1013.0
20190519173255 16 282 8.0 19.3 0.00 0.00 0.00 60 1012.9
20190519172755 16 294 4.8 14.5 0.00 0.00 0.00 58 1012.9
20190519172255 16 301 0.0 0.0 0.00 0.00 0.00 61 1012.9
20190519171755 16 306 6.4 12.9 0.00 0.00 0.00 60 1012.9
20190519171255 16 299 3.2 9.7 0.00 0.00 0.00 59 1012.9
20190519170755 16 98 0.0 8.0 0.00 0.00 0.00 62 1012.9
20190519170255 16 231 1.6 8.0 0.00 0.00 0.00 62 1012.9
20190519165756 16 75 1.6 9.7 0.00 0.00 0.00 64 1012.9
20190519165255 16 314 1.6 9.7 0.00 0.00 0.00 64 1013.0
20190519164755 15 337 1.6 8.0 0.00 0.00 0.00 66 1013.0
20190519164255 15 44 3.2 9.7 0.00 0.00 0.00 66 1013.1
20190519163755 15 76 1.6 11.3 0.00 0.00 0.00 65 1013.1
20190519163256 15 87 1.6 9.7 0.00 0.00 0.00 65 1013.2
20190519162755 16 84 3.2 9.7 0.00 0.00 0.00 65 1013.2
20190519162256 16 244 0.0 11.3 0.00 0.00 0.00 65 1013.2
20190519161756 15 250 3.2 9.7 0.00 0.00 0.00 67 1013.2
20190519161256 15 78 0.0 8.0 0.00 0.00 0.00 67 1013.2
20190519160756 15 314 3.2 9.7 0.00 0.00 0.00 68 1013.2
20190519160255 15 319 1.6 9.7 0.00 0.00 0.00 67 1013.2
20190519155756 14 84 3.2 9.7 0.00 0.00 0.00 69 1013.3
20190519155255 14 30 1.6 9.7 0.00 0.00 0.00 70 1013.3
20190519154755 14 64 1.6 9.7 0.00 0.00 0.00 71 1013.4
20190519154256 13 326 4.8 9.7 0.00 0.00 0.00 71 1013.4
20190519153756 13 337 4.8 9.7 0.00 0.00 0.00 73 1013.4
20190519153255 13 330 4.8 12.9 0.00 0.00 0.00 73 1013.4
20190519152756 13 316 6.4 12.9 0.00 0.00 0.00 74 1013.4
20190519152256 13 319 4.8 12.9 0.00 0.00 0.00 75 1013.5
20190519151756 13 316 8.0 19.3 0.00 0.00 0.00 74 1013.5
20190519151257 13 309 6.4 12.9 0.00 0.00 0.00 76 1013.5
20190519150756 13 314 11.3 19.3 0.00 0.00 0.00 74 1013.5
20190519150256 13 308 8.0 19.3 0.00 0.00 0.00 75 1013.5
20190519145756 13 310 11.3 19.3 0.00 0.00 0.00 76 1013.5
20190519145256 13 310 9.7 19.3 0.00 0.00 0.00 76 1013.5
20190519144756 12 314 9.7 19.3 0.00 0.00 0.00 78 1013.5
20190519144257 12 321 9.7 19.3 0.00 0.00 0.00 79 1013.5
20190519143756 12 323 12.9 22.5 0.00 0.00 0.00 80 1013.5
20190519143256 12 309 14.5 22.5 0.00 0.00 0.00 81 1013.6
20190519142756 12 307 12.9 22.5 0.00 0.00 0.00 79 1013.5
20190519142256 13 313 16.1 24.1 0.00 0.00 0.00 78 1013.5
20190519141756 13 322 16.1 25.7 0.00 0.00 0.00 76 1013.5
20190519141257 14 315 14.5 25.7 0.00 0.00 0.00 72 1013.5
20190519140756 14 311 16.1 25.7 0.00 0.00 0.00 66 1013.4
20190519140256 15 312 11.3 22.5 0.00 0.00 0.00 68 1013.3
20190519135757 15 306 8.0 19.3 0.00 0.00 0.00 67 1013.3
20190519135257 15 306 8.0 19.3 0.00 0.00 0.00 67 1013.2
20190519134757 15 288 8.0 19.3 0.00 0.00 0.00 67 1013.3
20190519134256 15 294 6.4 14.5 0.00 0.00 0.00 66 1013.2
20190519133756 15 314 4.8 19.3 0.00 0.00 0.00 65 1013.2
20190519133257 15 328 9.7 19.3 0.00 0.00 0.00 66 1013.3
20190519132757 15 325 9.7 14.5 0.00 0.00 0.00 65 1013.3
20190519132257 15 314 3.2 19.3 0.00 0.00 0.00 66 1013.3
20190519131757 15 315 8.0 14.5 0.00 0.00 0.00 68 1013.4
20190519131257 15 313 8.0 19.3 0.00 0.00 0.00 69 1013.3
20190519130757 14 304 4.8 20.9 0.00 0.00 0.00 70 1013.4
20190519130257 14 319 9.7 14.5 0.00 0.00 0.00 69 1013.5
20190519125758 14 311 14.5 22.5 0.00 0.00 0.00 69 1013.5
20190519125257 15 325 6.4 14.5 0.00 0.00 0.00 70 1013.5
20190519124757 14 316 6.4 19.3 0.00 0.00 0.00 70 1013.5
20190519124258 14 304 6.4 20.9 0.00 0.00 0.00 70 1013.5
20190519123757 14 313 4.8 20.9 0.00 0.00 0.00 71 1013.5
20190519123257 14 314 11.3 19.3 0.00 0.00 0.00 69 1013.4
20190519122757 14 330 9.7 20.9 0.00 0.00 0.00 69 1013.5
20190519122257 14 315 11.3 24.1 0.00 0.00 0.00 70 1013.4
20190519121758 14 327 9.7 19.3 0.00 0.00 0.00 72 1013.5
20190519121257 14 313 9.7 22.5 0.00 0.00 0.00 71 1013.5
20190519120757 13 321 11.3 19.3 0.00 0.00 0.00 71 1013.4
20190519120257 13 325 11.3 22.5 0.00 0.00 0.00 70 1013.4
20190519115758 13 320 6.4 19.3 0.00 0.00 0.00 73 1013.4
20190519115257 13 315 8.0 19.3 0.00 0.00 0.00 72 1013.4
20190519114758 13 330 11.3 20.9 0.00 0.00 0.00 72 1013.3
20190519114258 13 0 6.4 24.1 0.00 0.00 0.00 73 1013.3
20190519113758 13 319 9.7 20.9 0.00 0.00 0.00 73 1013.4
20190519113258 13 317 14.5 22.5 0.00 0.00 0.00 73 1013.3
20190519112757 13 316 11.3 24.1 0.00 0.00 0.00 73 1013.3
20190519112259 13 319 11.3 24.1 0.00 0.00 0.00 74 1013.3
20190519111758 13 311 11.3 22.5 0.00 0.00 0.00 76 1013.2
20190519111258 12 333 11.3 20.9 0.00 0.00 0.00 76 1013.2
20190519110758 12 327 9.7 20.9 0.00 0.00 0.00 78 1013.3
20190519110257 12 329 11.3 19.3 0.00 0.00 0.00 77 1013.3
20190519105758 12 317 8.0 19.3 0.00 0.00 0.00 78 1013.3
20190519105258 12 299 11.3 19.3 0.00 0.00 0.00 76 1013.3
20190519104758 13 314 11.3 20.9 0.00 0.00 0.00 76 1013.3
20190519104258 13 314 9.7 24.1 0.00 0.00 0.00 75 1013.2
20190519103759 13 311 14.5 24.1 0.00 0.00 0.00 74 1013.2
20190519103258 13 319 17.7 25.7 0.00 0.00 0.00 74 1013.2
20190519102758 13 317 16.1 22.5 0.00 0.00 0.00 75 1013.1
20190519102259 13 315 14.5 25.7 0.00 0.00 0.00 75 1013.1
20190519101759 13 315 11.3 25.7 0.00 0.00 0.00 77 1013.0
20190519101259 13 300 14.5 24.1 0.00 0.00 0.00 77 1013.1
20190519100758 12 302 16.1 24.1 0.00 0.00 0.00 77 1013.1
20190519100259 13 310 16.1 25.7 0.00 0.00 0.00 77 1013.1
20190519095758 13 304 14.5 24.1 0.00 0.00 0.00 77 1013.1
20190519095259 13 313 11.3 22.5 0.00 0.00 0.00 76 1013.1
20190519094758 13 317 14.5 22.5 0.00 0.00 0.00 75 1013.0
20190519094259 13 319 12.9 25.7 0.00 0.00 0.00 76 1012.9
20190519093759 13 323 16.1 32.2 0.00 0.00 0.00 75 1012.9
20190519093259 13 316 19.3 29.0 0.00 0.00 0.00 75 1012.9
20190519092759 12 314 16.1 29.0 0.00 0.00 0.00 77 1012.8
20190519092259 12 319 14.5 24.1 0.00 0.00 0.00 77 1012.9
20190519091758 12 318 14.5 24.1 0.00 0.00 0.00 77 1012.8
20190519091259 12 315 11.3 22.5 0.00 0.00 0.00 77 1012.9
20190519090759 12 320 14.5 25.7 0.00 0.00 0.00 77 1012.9
20190519090259 12 309 9.7 20.9 0.00 0.00 0.00 77 1012.9
20190519085759 12 317 16.1 25.7 0.00 0.00 0.00 76 1012.8
20190519085259 12 317 14.5 22.5 0.00 0.00 0.00 78 1012.8
20190519084759 12 306 11.3 22.5 0.00 0.00 0.00 78 1012.7
20190519084259 12 311 14.5 22.5 0.00 0.00 0.00 78 1012.8
20190519083759 12 303 14.5 22.5 0.00 0.00 0.00 79 1012.7
20190519083259 12 309 12.9 20.9 0.00 0.00 0.00 79 1012.7
20190519082759 11 308 9.7 19.3 0.00 0.00 0.00 80 1012.7
20190519082259 11 310 9.7 20.9 0.00 0.00 0.00 80 1012.8
20190519081800 11 309 11.3 20.9 0.00 0.00 0.00 79 1012.9
20190519081259 11 315 9.7 20.9 0.00 0.00 0.00 80 1012.9
20190519080800 11 312 9.7 19.3 0.00 0.00 0.00 80 1012.8
20190519080300 11 317 11.3 20.9 0.00 0.00 0.00 80 1012.7
20190519075759 11 316 9.7 19.3 0.00 0.00 0.00 80 1012.7
20190519075300 11 308 11.3 19.3 0.00 0.00 0.00 80 1012.7
20190519074800 11 313 9.7 19.3 0.00 0.00 0.00 81 1012.7
20190519074301 11 319 9.7 19.3 0.00 0.00 0.00 81 1012.7